Tracking 34085 objects as of 13-May-2026
HD Live streaming from Space Station
objects crossing your sky now

RASSVET-3 11

Track RASSVET-3 11 now!
10-day predictions


NORAD ID: 68370
Int'l Code: 2026-061L
Perigee: 298.9 km
Apogee: 310.9 km
Inclination: 82.3 °
Period: 90.5 minutes
Semi major axis: 6675 km
RCS: Unknown
Launch date: March 23, 2026
Source: Commonwealth of Independent States (former USSR) (CIS)
Launch site: PLESETSK MISSILE AND SPACE COMPLEX (PKMTR)
Your satellite tracking list
Your tracking list is empty




NASA's NSSDC Master Catalog

Two Line Element Set (TLE):
1 68370U 26061L   26132.47468116  .00021490 -94192-6  65259-4 0  9999
2 68370  82.2968  52.2141 0008964 218.8340 141.2290 15.91624418  7916
Source of the keplerian elements: AFSPC